カタリナ-パンスターズ彗星

299P/Catalina-PanSTARRS (2024)

English version
Home page
Updated on October 14, 2023

---------------------------------------------------------------------

・ プロフィール

・ 軌道要素

Epoch 2023 Feb. 25.0 TT = JDT 2460000.5
T 2024 Apr. 30.75863 TT                                 Rudenko
q   3.1556320            (2000.0)            P               Q
n   0.10721161     Peri.  323.75572     -0.55863572     +0.80928707
a   4.3884198      Node   271.60062     -0.71183724     -0.58018919
e   0.2809184      Incl.   10.46742     -0.42569224     -0.09184193
P   9.19
>From 319 observations 2005 Mar. 11-2023 Feb. 27, mean residual 0".7.

・ 光度変化

        m1 = 7.5 + 5 logΔ + 15.0 log r

---------------------------------------------------------------------

軌道要素はM.P.E.C. 2023-D72に掲載されたものです。
光度グラフはComet for Windowsで作成したものです。

---------------------------------------------------------------------

Copyright(C) Seiichi Yoshida (comet@aerith.net). All rights reserved.